[[{"header":{"parameterUnit":"m.s-1","parameterCategory":1,"la1":30.2991,"la2":30.254,"lo1":-89.0895,"lo2":-89.0444,"dy":0.0017,"dx":0.0017,"nx":28,"ny":28,"refTime":"2023-11-22T09:00:00:Z","depth":0,"parameterNumber":2,"parameterNumberName":"U-component_of_WINDS"},"data":[0,0,0,0,0,0,0,0,0,0,0,0,0,0,0,0,0,0,0,0,0,0,0,0,0,0,0,0,0,0,0,0,0,0,0,0,0,0,0,0,0,0,0,0,0,0,0,0,0,0,0,0,0,0,0,0,0,0,-1.312,-1.3119,0,-1.3038,-1.3037,-1.3036,-1.2942,-1.294,-1.2939,-1.2938,-1.2853,-1.2852,-1.2851,0,0,0,0,0,0,0,0,0,0,0,0,0,-1.3194,-1.3193,-1.312,-1.3119,-1.3118,-1.3038,-1.3037,-1.3036,-1.2942,-1.294,-1.2939,-1.2937,-1.2853,-1.2852,-1.2851,0,0,0,0,0,0,0,0,0,0,0,0,0,-1.3142,-1.3193,-1.312,-1.3061,-1.3055,-1.3038,-1.3037,-1.3035,-1.2942,-1.294,-1.2938,-1.2936,-1.2854,-1.2852,-1.2851,-1.2884,0,0,-1.2846,-1.2846,0,0,0,0,0,0,0,0,-1.3145,-1.3139,-1.3071,-1.3065,-1.3059,-1.2998,-1.3032,-1.2985,-1.2943,-1.2985,-1.2938,-1.2935,-1.2903,-1.2897,-1.2886,-1.288,-1.2877,-1.2846,-1.2845,-1.2845,-1.2844,0,0,0,0,0,0,0,-1.3149,-1.3142,-1.3087,-1.307,-1.3063,-1.3039,-1.3029,-1.3022,-1.2957,-1.2981,-1.2974,-1.2966,-1.2899,-1.2888,-1.2884,-1.2875,-1.2846,-1.2845,-1.2844,-1.2844,-1.2892,-1.2894,0,0,0,0,0,0,-1.3161,-1.3146,-1.309,-1.3085,-1.3098,-1.3039,-1.3028,-1.302,-1.2957,-1.2945,-1.2968,-1.2962,-1.2891,-1.2885,-1.288,-1.2915,-1.2845,-1.2844,-1.2843,-1.289,-1.2892,-1.2895,0,0,0,0,0,0,-1.3163,-1.3157,-1.3093,-1.3113,-1.3104,-1.304,-1.3031,-1.3019,-1.3008,-1.2946,-1.2934,-1.2969,-1.289,-1.2882,-1.2884,-1.2911,-1.2843,-1.2842,-1.2887,-1.2891,-1.2894,-1.2985,0,0,0,0,0,0,-1.3166,-1.3159,-1.3171,-1.3115,-1.3103,-1.3099,-1.3033,-1.3019,-1.3006,-1.2997,-1.2944,-1.2933,-1.2887,-1.2887,-1.2883,-1.2908,-1.284,-1.2885,-1.2889,-1.2893,-1.298,-1.2991,-1.3001,0,0,0,0,0,-1.3169,-1.32,-1.3172,-1.3166,-1.3117,-1.3101,-1.3094,-1.3041,-1.3008,-1.302,-1.2981,-1.2935,-1.2909,-1.2888,-1.2882,-1.2907,-1.2883,-1.2888,-1.2892,-1.2975,-1.2989,-1.3001,0,0,0,0,0,0,-1.3261,-1.3192,-1.316,-1.3174,-1.3144,-1.3085,-1.3098,-1.3057,-1.3036,-1.3029,-1.2963,-1.2952,-1.2961,-1.2934,-1.2912,-1.2936,-1.2889,-1.2893,-1.2954,-1.2967,-1.2977,-1.2984,-1.2839,0,0,0,0,0,-1.3283,-1.3276,-1.3215,-1.3234,-1.322,-1.3162,-1.3153,-1.3114,-1.3081,-1.3067,-1.3028,-1.2997,-1.2981,-1.2972,-1.2954,-1.2975,-1.2962,-1.299,-1.3001,-1.301,-1.3014,-1.3023,-1.3034,-1.291,-1.291,-1.291,0,0,-1.3329,-1.329,-1.3289,-1.3251,-1.3223,-1.3217,-1.3152,-1.3148,-1.3142,-1.3067,-1.3066,-1.3036,-1.2996,-1.3008,-1.3011,-1.2985,-1.3045,-1.3016,-1.3024,-1.3023,-1.3029,-1.304,-1.3051,-1.2914,-1.2913,-1.2913,0,0,-1.3408,-1.3378,-1.339,-1.3363,-1.3322,-1.3283,-1.3286,-1.3233,-1.321,-1.3208,-1.3151,-1.3143,-1.3118,-1.3092,-1.3076,-1.3146,-1.3103,-1.3142,-1.3198,-1.3207,-1.3217,-1.3225,-1.325,-1.326,-1.3146,-1.3146,-1.3146,0,-1.347,-1.3458,-1.3401,-1.34,-1.3385,-1.3316,-1.3327,-1.3304,-1.326,-1.3251,-1.3223,-1.319,-1.3158,-1.3162,-1.3179,-1.3168,-1.3169,-1.3147,-1.322,-1.3228,-1.3235,-1.3258,-1.3267,-1.3151,-1.3151,-1.315,-1.315,0,-1.3536,-1.3529,-1.3543,-1.3502,-1.3488,-1.3494,-1.3437,-1.343,-1.3392,-1.3356,-1.3355,-1.3315,-1.3288,-1.3286,-1.3249,-1.3284,-1.327,-1.3232,-1.3184,-1.3253,-1.3273,-1.3281,-1.3158,-1.3157,-1.3155,-1.3154,0,0,-1.3672,-1.3598,-1.3605,-1.3585,-1.3534,-1.3528,-1.353,-1.3503,-1.3498,-1.347,-1.347,-1.345,-1.3414,-1.3396,-1.3356,-1.3364,-1.3421,-1.3324,-1.3323,-1.3344,-1.3457,-1.3486,-1.3497,-1.3392,-1.3394,-1.3395,-1.346,0,-1.3742,-1.3742,-1.369,-1.3704,-1.3697,-1.3631,-1.3632,-1.3601,-1.3568,-1.3556,-1.3518,-1.3505,-1.3459,-1.3448,-1.3453,-1.3413,-1.3443,-1.3408,-1.3391,-1.3391,-1.3403,-1.3508,-1.3538,-1.3602,-1.3468,-1.3469,-1.347,0,-1.3824,-1.3801,-1.3814,-1.3763,-1.3758,-1.376,-1.3732,-1.3721,-1.3685,-1.3659,-1.3639,-1.3593,-1.3591,-1.3545,-1.3541,-1.3518,-1.3508,-1.3487,-1.3488,-1.3485,-1.3435,-1.3507,-1.3621,-1.3631,-1.3482,-1.3481,-1.348,0,-1.3922,-1.3894,-1.3898,-1.3883,-1.3823,-1.3826,-1.3802,-1.3763,-1.375,-1.3725,-1.3716,-1.3691,-1.3677,-1.3659,-1.3607,-1.3579,-1.3609,-1.3559,-1.3588,-1.3589,-1.3597,-1.3598,-1.3712,-1.3591,-1.3591,-1.3591,-1.3591,0,-1.4006,-1.4017,-1.3941,-1.3944,-1.3954,-1.3894,-1.3905,-1.3874,-1.384,-1.3835,-1.3776,-1.3773,-1.3705,-1.3694,-1.3653,-1.3656,-1.365,-1.3629,-1.3618,-1.3635,-1.3637,-1.3627,-1.3622,-1.3593,-1.3593,-1.3592,-1.3592,0,-1.4117,-1.4067,-1.4067,-1.401,-1.3996,-1.4006,-1.3957,-1.3957,-1.3919,-1.3914,-1.3909,-1.385,-1.3834,-1.3781,-1.3751,-1.3724,-1.3739,-1.3718,-1.3751,-1.3744,-1.3776,-1.3774,-1.3888,-1.39,-1.3772,-1.3774,-1.3775,0,-1.4174,-1.4181,-1.4125,-1.4118,-1.4096,-1.4085,-1.4071,-1.4012,-1.4001,-1.396,-1.3964,-1.3943,-1.3923,-1.39,-1.3855,-1.3831,-1.381,-1.3851,-1.3806,-1.3822,-1.381,-1.3811,-1.3811,-1.3861,-1.3863,-1.3864,-1.3865,0,-1.4281,-1.4256,-1.4239,-1.4214,-1.42,-1.4178,-1.4151,-1.4148,-1.4082,-1.4073,-1.4055,-1.404,-1.401,-1.3989,-1.3959,-1.3932,-1.3888,-1.388,-1.3885,-1.3902,-1.3921,-1.3911,-1.3778,-1.3878,-1.3876,-1.3876,-1.3875,-1.3874,-1.4367,-1.437,-1.4331,-1.4314,-1.4288,-1.4265,-1.4262,-1.4224,-1.4209,-1.418,-1.4146,-1.4133,-1.4095,-1.4049,-1.4026,-1.4014,-1.399,-1.3998,-1.4,-1.4003,-1.4011,-1.3923,-1.4009,-1.4008,-1.4008,-1.4007,-1.4007,0,-1.4471,-1.4442,-1.4428,-1.4393,-1.438,-1.4339,-1.4308,-1.43,-1.4289,-1.4258,-1.4239,-1.4219,-1.4199,-1.4152,-1.4127,-1.4127,-1.4106,-1.4123,-1.4122,-1.4117,-1.4034,-1.4032,-1.414,-1.414,-1.414,-1.414,-1.414,-1.414,-1.4523,-1.4526,-1.4496,-1.4485,-1.4456,-1.4443,-1.4429,-1.4407,-1.4381,-1.4362,-1.4345,-1.4314,-1.4276,-1.4248,-1.4228,-1.4214,-1.4208,-1.4231,-1.4211,-1.4135,-1.4123,-1.411,-1.4108,-1.423,-1.4231,-1.4295,-1.4295,-1.4296]},{"header":{"parameterUnit":"m.s-1","parameterCategory":1,"la1":30.2991,"la2":30.254,"lo1":-89.0895,"lo2":-89.0444,"dy":0.0017,"dx":0.0017,"nx":28,"ny":28,"refTime":"2023-11-22T09:00:00:Z","depth":0,"parameterNumber":3,"parameterNumberName":"V-component_of_WINDS"},"data":[0,0,0,0,0,0,0,0,0,0,0,0,0,0,0,0,0,0,0,0,0,0,0,0,0,0,0,0,0,0,0,0,0,0,0,0,0,0,0,0,0,0,0,0,0,0,0,0,0,0,0,0,0,0,0,0,0,0,-1.2485,-1.2485,0,-1.2494,-1.2494,-1.2495,-1.2456,-1.2455,-1.2454,-1.2453,-1.2464,-1.2466,-1.2467,0,0,0,0,0,0,0,0,0,0,0,0,0,-1.2435,-1.2436,-1.2485,-1.2485,-1.2485,-1.2494,-1.2494,-1.2495,-1.2456,-1.2455,-1.2453,-1.2452,-1.2464,-1.2465,-1.2467,0,0,0,0,0,0,0,0,0,0,0,0,0,-1.2452,-1.2436,-1.2485,-1.2467,-1.2466,-1.2494,-1.2494,-1.2495,-1.2456,-1.2455,-1.2453,-1.2451,-1.2463,-1.2465,-1.2467,-1.2514,0,0,-1.2474,-1.2474,0,0,0,0,0,0,0,0,-1.2451,-1.2454,-1.247,-1.2468,-1.2467,-1.2472,-1.2481,-1.2501,-1.2457,-1.246,-1.2453,-1.2451,-1.2468,-1.247,-1.2475,-1.2515,-1.2515,-1.2474,-1.2475,-1.2476,-1.2476,0,0,0,0,0,0,0,-1.245,-1.2453,-1.2489,-1.247,-1.2468,-1.2459,-1.2459,-1.2485,-1.2474,-1.246,-1.2457,-1.2458,-1.2467,-1.2474,-1.2475,-1.2515,-1.2474,-1.2476,-1.2477,-1.2478,-1.2593,-1.2595,0,0,0,0,0,0,-1.2451,-1.2452,-1.2488,-1.2489,-1.2454,-1.2461,-1.2462,-1.2472,-1.2473,-1.2472,-1.246,-1.2457,-1.2471,-1.2473,-1.2476,-1.2531,-1.2476,-1.2478,-1.2479,-1.2592,-1.2594,-1.2596,0,0,0,0,0,0,-1.245,-1.2454,-1.2488,-1.247,-1.2473,-1.2464,-1.2476,-1.2473,-1.2479,-1.2473,-1.2471,-1.2468,-1.247,-1.2473,-1.2505,-1.2531,-1.2479,-1.2481,-1.259,-1.2592,-1.2595,-1.2641,0,0,0,0,0,0,-1.2449,-1.2454,-1.2472,-1.2471,-1.2475,-1.2517,-1.2477,-1.2475,-1.2483,-1.2479,-1.2481,-1.248,-1.2469,-1.2502,-1.2507,-1.2533,-1.2482,-1.2587,-1.2591,-1.2594,-1.2638,-1.2646,-1.2652,0,0,0,0,0,-1.2447,-1.2485,-1.2473,-1.2477,-1.2496,-1.2518,-1.2521,-1.2507,-1.2485,-1.2503,-1.2499,-1.2479,-1.2527,-1.2505,-1.2511,-1.2538,-1.2585,-1.259,-1.2594,-1.2634,-1.2644,-1.2652,0,0,0,0,0,0,-1.249,-1.2485,-1.2471,-1.251,-1.2515,-1.2512,-1.2534,-1.2517,-1.2529,-1.2525,-1.2507,-1.2508,-1.2543,-1.2543,-1.252,-1.2583,-1.2553,-1.2558,-1.2582,-1.2591,-1.2598,-1.2597,-1.2484,0,0,0,0,0,-1.2504,-1.2522,-1.2516,-1.2551,-1.2554,-1.2543,-1.2552,-1.2541,-1.2546,-1.2548,-1.2546,-1.2552,-1.2568,-1.2579,-1.2594,-1.2637,-1.2637,-1.2658,-1.2665,-1.2671,-1.2677,-1.27,-1.2709,-1.261,-1.2609,-1.2609,0,0,-1.2533,-1.2532,-1.2545,-1.256,-1.2562,-1.2581,-1.2546,-1.2568,-1.2582,-1.2552,-1.2581,-1.258,-1.2586,-1.2623,-1.264,-1.2625,-1.2704,-1.2677,-1.2682,-1.2683,-1.2705,-1.2714,-1.2723,-1.2612,-1.2612,-1.2611,0,0,-1.2597,-1.2598,-1.2626,-1.263,-1.2633,-1.2626,-1.2633,-1.2632,-1.263,-1.266,-1.2637,-1.2654,-1.2682,-1.2687,-1.2693,-1.2757,-1.274,-1.2763,-1.2801,-1.2824,-1.2832,-1.2839,-1.2862,-1.287,-1.2767,-1.2768,-1.2768,0,-1.2633,-1.2661,-1.2644,-1.2667,-1.2674,-1.2647,-1.2676,-1.268,-1.2689,-1.2695,-1.2677,-1.2712,-1.2713,-1.2752,-1.2767,-1.2773,-1.2781,-1.2763,-1.2832,-1.2838,-1.2845,-1.2867,-1.2876,-1.277,-1.277,-1.277,-1.277,0,-1.2705,-1.2724,-1.2747,-1.2756,-1.2765,-1.2792,-1.2779,-1.2791,-1.2779,-1.2773,-1.2804,-1.2805,-1.2819,-1.2827,-1.2815,-1.2864,-1.2854,-1.2835,-1.2804,-1.2857,-1.2878,-1.2886,-1.2774,-1.2773,-1.2772,-1.2772,0,0,-1.2797,-1.2795,-1.2803,-1.2807,-1.2809,-1.2824,-1.2849,-1.2862,-1.2873,-1.2879,-1.29,-1.2924,-1.2906,-1.2913,-1.2901,-1.2921,-1.2972,-1.2899,-1.2899,-1.2913,-1.3026,-1.3042,-1.3052,-1.296,-1.2962,-1.2963,-1.3026,0,-1.2859,-1.2901,-1.2886,-1.293,-1.2948,-1.2922,-1.2943,-1.2947,-1.2943,-1.2958,-1.2952,-1.297,-1.2944,-1.2948,-1.2966,-1.2962,-1.2995,-1.2957,-1.2981,-1.2982,-1.2981,-1.3062,-1.3079,-1.3138,-1.3034,-1.3035,-1.3036,0,-1.2937,-1.2947,-1.2992,-1.299,-1.2997,-1.3017,-1.3028,-1.3042,-1.3046,-1.3041,-1.3049,-1.3033,-1.3058,-1.3026,-1.3061,-1.3035,-1.3044,-1.3043,-1.3045,-1.3047,-1.3013,-1.3068,-1.3157,-1.3166,-1.3049,-1.3048,-1.3047,0,-1.3,-1.3024,-1.3054,-1.3058,-1.3057,-1.3071,-1.3072,-1.3073,-1.3082,-1.3092,-1.3097,-1.311,-1.3117,-1.3127,-1.3115,-1.3093,-1.3151,-1.3119,-1.3149,-1.3149,-1.3163,-1.3162,-1.3255,-1.3167,-1.3167,-1.3167,-1.3167,0,-1.3072,-1.3101,-1.3082,-1.3101,-1.3132,-1.3115,-1.3147,-1.3144,-1.3146,-1.3164,-1.3142,-1.3159,-1.3142,-1.3158,-1.3149,-1.3179,-1.3182,-1.3179,-1.3177,-1.3182,-1.3182,-1.3188,-1.3184,-1.3169,-1.3169,-1.3168,-1.3168,0,-1.3148,-1.3137,-1.3168,-1.3164,-1.3163,-1.3187,-1.3184,-1.3201,-1.3194,-1.3217,-1.3222,-1.3212,-1.3229,-1.3218,-1.3236,-1.323,-1.3269,-1.3261,-1.3268,-1.3266,-1.3297,-1.3294,-1.3397,-1.341,-1.3313,-1.3314,-1.3315,0,-1.3195,-1.3216,-1.3214,-1.3224,-1.3226,-1.3243,-1.3251,-1.3235,-1.3245,-1.325,-1.3267,-1.3282,-1.3294,-1.3323,-1.3318,-1.3332,-1.3324,-1.3359,-1.3326,-1.333,-1.3325,-1.3324,-1.3326,-1.3366,-1.3367,-1.3368,-1.3368,0,-1.3279,-1.3272,-1.3285,-1.3296,-1.3307,-1.3315,-1.3321,-1.3331,-1.3314,-1.3327,-1.3344,-1.3353,-1.3371,-1.3387,-1.3398,-1.3398,-1.3381,-1.3379,-1.3386,-1.3392,-1.3396,-1.3395,-1.3287,-1.3377,-1.3376,-1.3375,-1.3375,-1.3375,-1.3342,-1.336,-1.3362,-1.3377,-1.3379,-1.3386,-1.3402,-1.3397,-1.3411,-1.3423,-1.3413,-1.3434,-1.3437,-1.345,-1.3453,-1.3469,-1.3455,-1.3466,-1.3469,-1.3472,-1.3477,-1.3393,-1.3471,-1.3471,-1.3471,-1.347,-1.347,0,-1.3426,-1.3425,-1.3439,-1.3449,-1.3461,-1.3442,-1.3448,-1.3459,-1.3478,-1.3481,-1.3493,-1.3513,-1.3528,-1.3524,-1.3537,-1.3551,-1.3544,-1.3555,-1.3555,-1.3555,-1.3488,-1.3481,-1.3561,-1.3561,-1.3561,-1.3561,-1.3561,-1.3561,-1.3471,-1.35,-1.3494,-1.3524,-1.3523,-1.3543,-1.3548,-1.3554,-1.3556,-1.358,-1.3592,-1.3588,-1.3589,-1.3602,-1.3616,-1.3614,-1.362,-1.3635,-1.3631,-1.3569,-1.356,-1.3551,-1.3544,-1.3637,-1.3637,-1.3696,-1.3697,-1.3697]}]]